Overview Statistics Trail Chart Weather Telemetry Raw packets
 

This is the latest recevied weather packets stored in our database for station/object OE3TEC-15. If no packets are shown the sender has not sent any weather packets the latest 10 day(s).

<< 1 2 3 4 >>
Time Temp. Humidity Pressure Rain* Wind** Luminosity Snow
1788590911 15.56° C 87% 1021.2 hPa 1.78 mm - 32 W/m² -
1788590274 15.56° C 83% 1020.8 hPa 1.52 mm - 15 W/m² -
1788588431 16.11° C 81% 1020.6 hPa 0.76 mm - 10 W/m² -
1788587191 16.67° C 72% 1020.9 hPa 0 mm - 11 W/m² -
1788585963 17.78° C 65% 1020.7 hPa 0 mm - 12 W/m² -
1788583506 18.89° C 60% 1019.1 hPa 0 mm - 4 W/m² -
1788581027 20° C 56% 1018.5 hPa 0 mm - 0 W/m² -
1788579786 20.56° C 56% 1018.2 hPa 0 mm - 0 W/m² -
1788578546 20.56° C 57% 1018.2 hPa 0 mm - 0 W/m² -
1788577942 20.56° C 57% 1017.7 hPa 0 mm - 0 W/m² -
1788574895 22.78° C 58% 1016.1 hPa 0 mm - 0 W/m² -
1788573655 25.56° C 49% 1014.7 hPa 0 mm - 0 W/m² -
1788569971 22.78° C 57% 1014.4 hPa 0 mm - 0 W/m² -
1788569368 23.33° C 55% 1014.4 hPa 0 mm - 0 W/m² -
1788567491 24.44° C 50% 1014.4 hPa 0 mm - 0 W/m² -
1788563819 23.89° C 50% 1014 hPa 0 mm - 0 W/m² -
1788563203 23.33° C 51% 1013.9 hPa 0 mm - 0 W/m² -
1788561360 18.33° C 69% 1013.9 hPa 0 mm - 0 W/m² -
1788560723 17.78° C 71% 1014 hPa 0 mm - 0 W/m² -
1788558861 17.22° C 74% 1013.7 hPa 0 mm - 0 W/m² -
1788558243 16.67° C 75% 1013.7 hPa 0 mm - 0 W/m² -
1788553283 18.33° C 71% 1014 hPa 0 mm - 0 W/m² -
1788552051 18.33° C 69% 1014.1 hPa 0 mm - 0 W/m² -
1788550811 18.89° C 69% 1013.9 hPa 0 mm - 0 W/m² -
1788550189 19.44° C 67% 1013.9 hPa 0 mm - 0 W/m² -

* Rain latest hour (hover to see other rain measurements)
** Current wind speed in m/s (hover to see current wind gust speed)